Hourly Data Report for October 14, 2014

All times are specified in Local Standard Time (LST). Add 1 hour to adjust for Daylight Saving Time where and when it is observed.

GRISE FIORD CLIMATE
NUNAVUT

76°25'22.040" N
82°54'08.020" W
44.50 m
2402351
71971
NGC

Download Data

Hourly Data (October 2014)
Hourly Data Report for October 14, 2014
Temp Definition
°C
Dew Point Temp Definition
°C
Rel Hum Definition
%
Wind Dir Definition
10's deg

Wind Spd Definition
km/h
Visibility Definition
km
Stn Press Definition
kPa
Hmdx Definition


Wind Chill Definition


Weather Definition


TIME
00:00 -0.7 -5.2 71 7 10   101.41   -4 LegendNANA
01:00 -0.5 -6.1 66 6 16   101.38   -5 LegendNANA
02:00 -0.6 -6.4 64 7 25   101.35   -7 LegendNANA
03:00 -0.7 -6.9 63 5 17   101.34   -6 LegendNANA
04:00 -1.4 -6.8 66 2 4   101.34   -3 LegendNANA
05:00 -1.7 -6.9 68 22 5   101.33   -4 LegendNANA
06:00 -1.8 -7.2 66 5 17   101.34   -7 LegendNANA
07:00 -1.8 -6.9 68 17 4   101.33   -3 LegendNANA
08:00 -2.5 -7.5 69 9 8   101.32   -6 LegendNANA
09:00 -3.3 -8.1 69 4 16   101.34   -9 LegendNANA
10:00 -3.6 -7.2 76 5 5   101.34   -6 LegendNANA
11:00 -4.1 -6.5 83 6 7   101.35   -7 LegendNANA
12:00 -3.2 -5.8 82 8 3   101.35   -4 LegendNANA
13:00 -2.0 -5.3 78 10 3   101.37   -3 LegendNANA
14:00 -2.7 -3.9 91 35 4   101.40   -4 LegendNANA
15:00 -2.9 -3.9 93 36 2   101.40   -4 LegendNANA
16:00 -3.4 -4.3 94 2 2   101.40   -4 LegendNANA
17:00 -3.1 -4.8 88 2 5   101.40   -5 LegendNANA
18:00 -3.7 -4.4 95 4 6   101.41   -6 LegendNANA
19:00 -3.4 -4.0 96   0   101.41     LegendNANA
20:00 -4.1 -4.8 95 4 3   101.41   -5 LegendNANA
21:00 -3.6 -5.0 90 1 2   101.40   -4 LegendNANA
22:00 -3.8 -4.9 92 4 6   101.38   -6 LegendNANA
23:00 -3.8 -4.7 94 0 1   101.36   -4 LegendNANA

Notes on Data Quality.

Legend

  • E = Estimated
  • M = Missing
  • NA = Not Available
  • ‡ = Partner data that is not subject to review by the National Climate Archives
Date modified: